Погода в Ракитном

Украина / Киевская область     49°41′28″N   30°28′54″E
темп.,
°C
ветер,
м/с
пор.,
м/с
влажн.,
%
обл.,
%
осадки,
мм/ч
давл.,
гПа
погр.,
м
16 апреля, пт
пт1600:00+7сз3595100 0.3 1011144
03:00+7сз4795100 0.4 1011298
06:00+6сз3595100 0.1 1011284
09:00+6зсз4594100 2.0 1011393
12:00+6зсз4586100 0.3 1012498
15:00+7сз4583100 0.3 1012586
18:00+7с1385100 0.8 1013274
21:00+6зсз5882100 1.9 1014508
17 апреля, сб
сб1700:00+4з4789100 0.3 1015479
03:00+4з4793100 0.3 1016493
06:00+4з3589100 0.0 1017586
09:00+4з4584100 0.0 1018566
12:00+5зюз4486100 0.1 1019745
15:00+7зюз457497 0.2 1020971
18:00+7зюз3375100 0.1 1020736
21:00+5зюз2384100 0.1 1020122
18 апреля, вс
вс1800:00+6з2374100 0.0 101981
03:00+5з348015 0.0 101980
06:00+2з38945 0.0 1018147
09:00+7з587635 0.0 1017438
12:00+12з676495 0.0 1016973
15:00+12зсз566582 0.0 10161214
18:00+10ссз4681100 0.1 1017388
21:00+8ссв4684100 0.1 1018388
19 апреля, пн
пн1900:00+4ссв249293 0.0 1018110
03:00+3с2290100 0.0 101838
06:00+4ссв2290100 0.0 101740
09:00+8св4774100 0.0 1016795
12:00+9св4561100 0.0 10161276
15:00+11св4459100 0.0 10151373
18:00+10св5664100 0.0 10121106
21:00+7св41070100 0.0 1010382
20 апреля, вт
вт2000:00+6ссв61289100 0.0 1007422
03:00+7ссв71583100 0.1 1003502
06:00+6с81591100 2.3 1000489
09:00+6с81495100 9.9 996694
12:00+7ссз81294100 7.2 994749
15:00+7ссз71092100 12.8 9951008
18:00+5сз81395100 3.4 9961073
21:00+6зсз81595100 5.3 9981221